STARLINK-1413, 45689

Orbit data source: Space-Track

STARLINK-1413, 45689 is a payload satellite owned by SpaceX/Seattle (US) in LEO that was launched on Thu, 04 Jun 2020 UTC via an FALCON 9 launch vehicle from the Air Force Eastern Test Range (AFETR). Payload-class satellites include a variety of spacecraft equipped with specific instruments for various scientific and technological missions. These include communications satellites like Starlink; space stations such as the ISS; scientific satellites like the Hubble; Earth observation satellites from companies like Planet Labs, Umbra, and HawkEye 360; GPS; miniature CubeSats for education and research; and military/defense satellites.

Loading next visibility...
Identifier
45689, 2020-035AJ
Orbit
LEO
Country
Flag of USUS
Related business
Manufacturer
SpaceX/Seattle
Mission
Operational Commercial Communications
Bus & Motor
STARLINK, Unknown motor
Mass
260 kg wet, ~248 kg dry
Launch date (UTC)
2020-06-04 (6 years ago)
Launch vehicle
FALCON 9
Launch site
Air Force Eastern Test Range (AFETR)
Object type
Payload
Rocket body
Debris
Shape & HBR
Box + 1 Pan, 10.1 m
Radar Cross Section
13.562 m², Large (>1 m²)

Expand to show TLE details & history
Last TLE update: 21 hours ago

TLE from 21 hours ago
0 STARLINK-1413
1 45689U 20035AJ  26072.29448337  .00002620  00000-0  10054-3 0  9992
2 45689  53.1623  32.8342 0001413  85.3382 274.7780 15.30209341319448
Epoch: 2026-03-13T07:04Z
TLE epoch observation values (Epoch: 2026-03-13T07:04:03.363Z)
Latitude
-0.00002°
Longitude
115.8881°
Altitude
476.007 km
Speed
7.629 km/s
True Right ascension
02h 11m 20s
True Declination
0° 00' 00"
Sunlit
Object was in daylight at epoch
Visualization orbit readout
Latitude
Unknown
Longitude
Unknown
Altitude
Unknown
Speed
Unknown
Apparent Right ascension
Unknown
Apparent Declination
Unknown
Sunlit
N/A
Visualization observer readout
Local Sidereal Time
08:08:10
Azimuth
Unknown
Elevation
Unknown
Doppler factor
Unknown
Orbital elements
Apogee altitude
476.412 km
Perigee altitude
474.475 km
Semi-major axis
6,853.58 km
Eccentricity
0.00014
Inclination
53.1623°
RAAN
32.8342°
Arg. of periapsis
85.3382°
True anomaly
274.76186°
Mean anomaly
274.778°
Eccentric anomaly
274.76993°
Mean motion
3.82531 °/min
Orbital period
94.11 mins
BSTAR
0.00010054
Loading maneuver chart data...
Computing Atmospheric mass density...

Documentation

Showing up to 5 results
|